GW7113 Weather Reports


time (UTC)temp
F
wind
direction
speed
knots
gust
knots
rain 1hr
in
rain 24hr
in
rain mn
in
humidity
%
barometer
mb
20260507033543 58 9 4.3 9.6 0.00 0.40 0.83 95 1016.6
20260507033043 58 12 6.1 9.6 0.00 0.40 0.83 95 1016.6
20260507032543 58 353 5.2 9.6 0.00 0.40 0.83 95 1016.6
20260507032043 58 15 5.2 8.7 0.00 0.40 0.83 95 1016.6
20260507031543 58 28 5.2 7.8 0.00 0.40 0.83 95 1016.9
20260507031042 58 22 3.5 7.0 0.00 0.40 0.83 95 1016.9
20260507030543 58 30 4.3 12.2 0.00 0.40 0.83 95 1016.7
20260507030042 58 6 6.1 12.2 0.00 0.40 0.83 95 1016.7
20260507025542 58 11 7.0 11.3 0.00 0.40 0.83 95 1016.1
20260507025043 58 19 5.2 8.7 0.00 0.40 0.83 95 1016.3
20260507024542 58 347 5.2 9.6 0.00 0.40 0.83 95 1016.6
20260507024042 58 358 4.3 9.6 0.00 0.40 0.83 95 1016.2
20260507023542 58 340 6.1 9.6 0.00 0.40 0.83 95 1016.0
20260507023048 58 37 5.2 9.6 0.00 0.40 0.83 95 1015.8
20260507022543 58 23 7.8 9.6 0.00 0.40 0.83 95 1016.0
20260507022031 58 13 5.2 9.6 0.00 0.40 0.83 95 1016.1
20260507021531 58 353 4.3 8.7 0.00 0.40 0.83 95 1016.5
20260507021031 58 7 5.2 7.8 0.00 0.40 0.83 95 1016.5
20260507020530 58 20 3.5 7.8 0.00 0.40 0.83 95 1016.3
20260507020031 58 357 2.6 7.0 0.00 0.40 0.83 95 1016.0
20260507015531 58 351 3.5 7.0 0.00 0.40 0.83 95 1015.9
20260507015247 58 352 2.6 6.1 0.00 0.40 0.83 95 1016.0
20260507014531 58 350 2.6 8.7 0.00 0.40 0.83 94 1016.0
20260507014031 58 5 3.5 8.7 0.00 0.40 0.83 94 1015.9
20260507013531 58 340 3.5 7.8 0.00 0.40 0.83 94 1015.6
20260507013031 58 349 2.6 7.8 0.00 0.40 0.83 94 1015.5
20260507012531 58 342 3.5 8.7 0.00 0.40 0.83 94 1015.3
20260507012031 58 52 3.5 8.7 0.00 0.40 0.83 94 1015.4
20260507011531 58 22 5.2 8.7 0.00 0.40 0.83 94 1015.2
20260507011031 58 7 4.3 8.7 0.00 0.40 0.83 94 1015.1
20260507010752 58 22 3.5 8.7 0.00 0.40 0.83 94 1015.0
20260507010031 58 354 3.5 8.7 0.00 0.40 0.83 94 1015.1
20260507005530 58 2 4.3 8.7 0.00 0.40 0.83 94 1014.8
20260507005248 58 17 3.5 9.6 0.00 0.40 0.83 94 1014.8
20260507004531 58 357 7.0 9.6 0.00 0.40 0.83 94 1014.9
20260507004249 58 4 3.5 7.0 0.00 0.40 0.83 94 1014.8
20260507003530 58 5 5.2 8.7 0.00 0.40 0.83 93 1015.1
20260507003030 58 344 3.5 8.7 0.00 0.40 0.83 93 1014.9
20260507002530 59 5 5.2 12.2 0.00 0.40 0.83 93 1014.8
20260507002031 59 356 3.5 12.2 0.00 0.40 0.83 93 1014.8
20260507001531 59 342 5.2 8.7 0.00 0.40 0.83 93 1014.4
20260507001032 59 358 3.5 11.3 0.00 0.40 0.83 92 1014.4
20260507000751 59 16 5.2 13.0 0.00 0.40 0.83 92 1014.5
20260507000031 59 5 5.2 13.0 0.00 0.40 0.83 92 1014.3
20260506235531 59 5 6.1 11.3 0.00 0.40 0.83 92 1014.3
20260506235031 59 347 7.0 11.3 0.00 0.40 0.83 92 1014.3
20260506234749 59 332 3.5 11.3 0.00 0.40 0.83 92 1014.1
20260506234031 59 338 8.7 9.6 0.00 0.40 0.83 92 1014.2
20260506233752 59 352 1.7 13.0 0.00 0.40 0.83 92 1014.5
20260506233030 60 328 3.5 13.0 0.00 0.40 0.83 92 1014.3
20260506232530 60 3 7.8 13.0 0.00 0.40 0.83 92 1014.1
20260506232031 59 3 5.2 14.8 0.00 0.40 0.83 92 1014.1
20260506231531 59 348 8.7 14.8 0.00 0.40 0.83 92 1014.1
20260506231031 59 358 8.7 11.3 0.00 0.40 0.83 92 1014.0
20260506230750 60 13 5.2 9.6 0.00 0.40 0.83 92 1014.8
20260506230030 60 345 3.5 14.8 0.00 0.40 0.83 91 1014.9
20260506225530 60 326 7.0 14.8 0.00 0.40 0.83 91 1014.4
20260506224530 60 35 3.5 12.2 0.00 0.40 0.83 92 1014.0
20260506224030 60 0 7.8 11.3 0.00 0.40 0.83 91 1014.3
20260506223530 60 1 5.2 9.6 0.00 0.40 0.83 91 1014.2
20260506223030 60 324 4.3 11.3 0.00 0.40 0.83 91 1014.3
20260506222530 60 345 6.1 11.3 0.00 0.40 0.83 92 1014.2
20260506222031 60 1 5.2 12.2 0.00 0.40 0.83 91 1014.4
20260506221753 60 338 5.2 12.2 0.00 0.40 0.83 92 1014.2
20260506221031 60 343 4.3 12.2 0.00 0.40 0.83 92 1014.2
20260506220531 60 2 5.2 13.9 0.00 0.40 0.83 92 1014.1
20260506220030 60 320 5.2 13.9 0.00 0.40 0.83 92 1014.4
20260506215530 60 339 8.7 13.9 0.00 0.40 0.83 92 1014.1
20260506215030 60 314 7.0 13.0 0.00 0.40 0.83 93 1014.2
20260506214531 59 29 5.2 13.0 0.00 0.40 0.83 93 1013.8
20260506214019 59 338 8.7 13.9 0.00 0.40 0.83 93 1014.0
20260506213519 59 334 9.6 13.9 0.00 0.40 0.83 93 1014.2
20260506213019 59 21 5.2 13.9 0.00 0.40 0.83 93 1014.3
20260506212519 59 347 5.2 16.5 0.00 0.40 0.83 93 1014.1
20260506212019 59 347 7.0 16.5 0.00 0.40 0.83 93 1014.2
20260506211519 59 6 8.7 15.6 0.00 0.40 0.83 93 1014.5
20260506211018 59 6 5.2 15.6 0.00 0.40 0.83 94 1014.5
20260506210519 59 306 7.8 14.8 0.00 0.40 0.83 93 1014.5
20260506210018 59 338 9.6 14.8 0.00 0.40 0.83 94 1014.5
20260506205019 59 330 6.1 16.5 0.00 0.40 0.83 93 1014.3
20260506204519 59 299 9.6 14.8 0.00 0.40 0.83 93 1014.4
20260506204018 59 343 9.6 14.8 0.00 0.40 0.83 93 1014.4
20260506203507 59 7 7.0 14.8 0.00 0.40 0.83 93 1014.7
20260506203007 59 356 4.3 13.9 0.00 0.40 0.83 92 1014.7
20260506202507 60 311 8.7 15.6 0.00 0.40 0.83 92 1014.5
20260506202006 60 312 8.7 15.6 0.00 0.40 0.83 92 1014.7
20260506201506 60 328 6.1 13.0 0.00 0.40 0.83 92 1014.7
20260506201006 60 18 6.1 13.9 0.00 0.40 0.83 93 1014.7
20260506200506 59 337 9.6 16.5 0.00 0.40 0.83 93 1014.8
20260506200011 59 6 7.0 16.5 0.00 0.40 0.83 93 1014.9
20260506195506 59 350 7.0 15.6 0.00 0.40 0.83 93 1014.9
20260506195006 59 321 7.0 15.6 0.00 0.40 0.83 93 1015.0
20260506194507 59 324 6.1 14.8 0.00 0.40 0.83 94 1014.8
20260506194007 59 311 7.8 13.9 0.00 0.40 0.83 94 1014.5
20260506193729 59 335 7.0 13.9 0.00 0.40 0.83 94 1014.8
20260506193228 58 320 7.8 13.9 0.00 0.40 0.83 94 1014.5
20260506192507 58 317 5.2 13.9 0.00 0.40 0.83 93 1014.9
20260506192212 59 315 7.8 14.8 0.00 0.40 0.83 93 1015.1
20260506191455 59 335 9.6 14.8 0.00 0.40 0.83 93 1014.9
20260506190955 59 313 9.6 14.8 0.00 0.40 0.83 93 1014.7
20260506190715 59 20 5.2 14.8 0.00 0.40 0.83 93 1014.8
20260506185954 59 341 7.0 16.5 0.00 0.40 0.83 94 1015.0
20260506185454 60 322 8.7 19.1 0.00 0.40 0.83 93 1015.0
20260506184954 60 352 12.2 19.1 0.00 0.40 0.83 93 1015.0
20260506184454 60 338 7.8 15.6 0.00 0.40 0.83 93 1015.0
20260506183954 60 292 9.6 15.6 0.00 0.40 0.83 93 1015.0
20260506183455 60 329 7.8 15.6 0.00 0.40 0.83 93 1015.0
20260506182955 61 318 11.3 16.5 0.00 0.40 0.83 92 1015.0
20260506182720 61 2 11.3 16.5 0.00 0.40 0.83 92 1014.9
20260506181955 62 337 12.2 15.6 0.00 0.40 0.83 92 1014.9
20260506181455 62 346 7.8 14.8 0.00 0.40 0.83 92 1014.8
20260506180955 62 13 7.0 14.8 0.00 0.40 0.83 92 1014.8
20260506180455 62 322 5.2 13.9 0.00 0.40 0.83 93 1014.9
20260506175955 61 277 8.7 16.5 0.00 0.40 0.83 93 1015.0
20260506175727 61 335 8.7 16.5 0.00 0.40 0.83 92 1015.0
20260506175220 63 219 11.3 15.6 0.00 0.40 0.83 91 1015.8
20260506174455 64 317 8.7 15.6 0.00 0.40 0.83 91 1015.2
20260506173955 65 333 9.6 15.6 0.00 0.40 0.83 92 1015.0
20260506173455 67 334 3.5 14.8 0.00 0.40 0.83 91 1014.9
20260506172955 69 333 10.4 14.8 0.00 0.40 0.83 91 1014.8
20260506172455 71 332 4.3 11.3 0.00 0.40 0.83 93 1014.8
20260506171955 71 8 7.8 9.6 0.00 0.40 0.83 94 1014.4
20260506171455 71 7 4.3 8.7 0.00 0.40 0.83 95 1014.2
20260506171221 70 357 3.5 7.8 0.00 0.40 0.83 95 1014.3
20260506170454 70 359 5.2 8.7 0.00 0.40 0.83 96 1014.3
20260506165954 70 353 3.5 8.7 0.00 0.40 0.83 97 1014.3
20260506165454 69 317 3.5 8.7 0.00 0.40 0.83 98 1014.3
20260506165214 67 356 3.5 8.7 0.00 0.40 0.83 97 1014.3
20260506164455 66 13 2.6 8.7 0.00 0.40 0.83 98 1014.3
20260506163955 65 3 3.5 11.3 0.00 0.40 0.83 98 1014.2
20260506163454 63 344 7.8 11.3 0.00 0.40 0.83 98 1014.5
20260506162955 62 355 1.7 11.3 0.00 0.40 0.83 97 1013.7
20260506162454 61 136 5.2 11.3 0.01 0.40 0.83 97 1013.6
20260506161954 62 103 5.2 9.6 0.05 0.40 0.83 98 1013.6
20260506161719 60 82 4.3 12.2 0.17 0.40 0.83 97 1013.5
20260506160955 60 90 3.5 12.2 0.40 0.40 0.83 97 1013.6
20260506160455 60 89 7.8 8.7 0.40 0.40 0.83 97 1013.7
20260506155955 60 91 3.5 7.8 0.40 0.40 0.83 97 1013.6
20260506155455 61 83 3.5 6.1 0.40 0.40 0.83 97 1013.8
20260506154954 60 66 2.6 8.7 0.40 0.40 0.83 98 1013.8
20260506154454 60 334 2.6 8.7 0.40 0.40 0.83 98 1013.6
20260506153954 59 331 0.9 8.7 0.40 0.40 0.83 98 1013.7
20260506153454 58 283 4.3 8.7 0.40 0.40 0.83 98 1014.2
20260506153214 57 73 4.3 8.7 0.39 0.39 0.82 98 1013.9
20260506152455 57 318 3.5 18.2 0.39 0.39 0.82 97 1014.1
20260506151955 56 315 6.1 26.9 0.35 0.35 0.79 97 1014.2
20260506151714 56 359 13.0 26.9 0.23 0.23 0.70 96 1013.8
20260506150955 59 294 14.8 0.0 0.00 0.00 0.43 96 1016.1
20260506150153 61 270 17.4 31.3 0.32 0.37 0.41 97 1015.8
20260506145658 62 245 13.9 18.2 0.30 0.35 0.35 96 1013.0
20260506145153 62 44 9.6 13.9 0.30 0.35 0.35 96 1011.0
20260506144652 62 65 9.6 16.5 0.14 0.19 0.23 96 1012.3
20260506144153 63 12 7.8 21.7 0.03 0.08 0.08 95 1012.9
20260506143913 64 348 12.2 21.7 0.01 0.06 0.06 95 1013.4
20260506143153 66 327 10.4 20.0 0.00 0.05 0.05 94 1013.8
20260506142652 70 327 12.2 20.0 0.00 0.05 0.05 96 1013.9
20260506142153 71 359 1.7 3.5 0.00 0.05 0.05 97 1013.3
20260506141652 71 159 0.9 5.2 0.00 0.05 0.05 97 1013.3
20260506141153 71 159 0.0 8.7 0.01 0.05 0.05 97 1013.3
20260506140910 71 182 2.6 8.7 0.01 0.05 0.05 97 1013.1
20260506140153 72 182 4.3 9.6 0.01 0.05 0.05 97 1012.5
20260506135653 72 100 5.2 9.6 0.01 0.05 0.05 97 1012.4
20260506135152 72 108 7.0 7.8 0.01 0.05 0.05 97 1012.5
20260506134652 71 92 2.6 7.8 0.01 0.05 0.05 97 1012.4
20260506134153 71 121 6.1 8.7 0.01 0.05 0.05 97 1012.0
20260506133652 71 110 7.0 8.7 0.01 0.05 0.05 97 1011.7
20260506133152 71 80 4.3 7.8 0.02 0.05 0.05 97 1012.0
20260506132653 71 58 3.5 7.0 0.02 0.05 0.05 97 1011.5
20260506132153 71 87 1.7 7.0 0.02 0.05 0.05 97 1011.1
20260506131652 71 66 3.5 6.1 0.02 0.05 0.05 97 1011.4
20260506131419 71 54 3.5 6.1 0.02 0.04 0.04 97 1011.6
20260506130653 71 38 2.6 5.2 0.02 0.04 0.04 97 1011.7
20260506130411 71 81 1.7 3.5 0.02 0.04 0.04 97 1011.7
20260506125652 71 66 1.7 5.2 0.03 0.04 0.04 97 1011.8
20260506125153 71 71 2.6 5.2 0.03 0.04 0.04 97 1011.5
20260506124653 71 77 1.7 5.2 0.02 0.04 0.04 97 1011.4
20260506124153 71 75 1.7 3.5 0.03 0.04 0.04 97 1011.3
20260506123653 71 72 2.6 3.5 0.03 0.04 0.04 97 1011.3
20260506123413 71 107 0.9 1.7 0.03 0.04 0.04 96 1011.2
20260506122653 71 148 0.9 1.7 0.04 0.04 0.04 96 1011.2
20260506122412 71 159 0.0 0.9 0.03 0.03 0.03 96 1011.2
20260506121653 71 159 0.0 0.9 0.03 0.03 0.03 96 1011.2
20260506121153 71 159 0.0 1.7 0.03 0.03 0.03 96 1011.4
20260506120909 71 159 0.0 1.7 0.02 0.02 0.02 96 1011.4
20260506120153 71 157 0.0 1.7 0.02 0.02 0.02 96 1011.3
20260506115653 71 161 0.0 2.6 0.02 0.02 0.02 96 1011.2
20260506115152 71 135 1.7 2.6 0.02 0.02 0.02 96 1011.0
20260506114652 71 142 0.0 2.6 0.02 0.02 0.02 96 1011.2
20260506114419 71 142 0.0 2.6 0.01 0.01 0.01 96 1011.1
20260506113654 71 166 0.9 1.7 0.01 0.01 0.01 96 1011.1
20260506113153 71 173 0.9 0.9 0.00 0.00 0.00 96 1011.1
20260506112653 71 173 0.0 0.9 0.00 0.00 0.00 96 1011.3
20260506112153 71 173 0.0 2.6 0.00 0.00 0.00 96 1011.2
20260506111912 71 174 0.0 5.2 0.00 0.00 0.00 96 1011.1
20260506111152 71 171 1.7 7.0 0.00 0.00 0.00 97 1011.3
20260506110652 71 161 1.7 7.0 0.00 0.00 0.00 97 1011.1
20260506110153 71 167 4.3 7.0 0.00 0.00 0.00 97 1011.1
20260506105653 71 188 5.2 7.0 0.00 0.00 0.00 96 1011.1
20260506105153 71 135 4.3 5.2 0.00 0.00 0.00 96 1011.1
20260506104652 71 113 1.7 6.1 0.00 0.00 0.00 96 1011.0
20260506104153 71 113 1.7 6.1 0.00 0.00 0.00 96 1010.8
20260506103653 71 129 1.7 8.7 0.00 0.00 0.00 96 1010.8
20260506103152 71 146 3.5 8.7 0.00 0.00 0.00 96 1010.7
20260506102652 71 171 5.2 7.8 0.00 0.00 0.00 96 1010.8
20260506102152 71 175 4.3 8.7 0.00 0.00 0.00 96 1011.0
20260506101652 71 158 3.5 9.6 0.00 0.00 0.00 96 1011.0
20260506101417 71 169 5.2 9.6 0.00 0.00 0.00 96 1011.0
20260506100654 71 145 5.2 11.3 0.00 0.00 0.00 96 1011.1
20260506100153 71 155 5.2 11.3 0.00 0.00 0.00 96 1010.8
20260506095653 71 143 7.8 11.3 0.00 0.00 0.00 96 1010.5
20260506095153 71 144 7.8 12.2 0.00 0.00 0.00 96 1010.6
20260506094923 71 168 5.2 12.2 0.00 0.00 0.00 96 1010.5
20260506094152 71 142 7.8 9.6 0.00 0.00 0.00 96 1010.5
20260506093653 71 182 6.1 9.6 0.00 0.00 0.00 95 1010.5
20260506093153 71 167 4.3 15.6 0.00 0.00 0.00 95 1010.5
20260506092653 71 137 6.1 15.6 0.00 0.00 0.00 95 1010.5
20260506092153 71 160 6.1 14.8 0.00 0.00 0.00 95 1010.5
20260506091914 71 163 8.7 16.5 0.00 0.00 0.00 95 1010.4
20260506091152 71 142 8.7 16.5 0.00 0.00 0.00 95 1010.1
20260506090657 71 168 7.0 18.2 0.00 0.00 0.00 95 1010.1
20260506090411 72 188 6.1 18.2 0.00 0.00 0.00 95 1010.0
20260506085653 72 141 12.2 16.5 0.00 0.00 0.00 95 1010.0
20260506085154 72 176 11.3 14.8 0.00 0.00 0.00 95 1010.1
20260506084652 72 163 5.2 14.8 0.00 0.00 0.00 95 1010.2
20260506084152 72 168 11.3 14.8 0.00 0.00 0.00 95 1010.2
20260506083652 72 156 7.8 18.2 0.00 0.00 0.00 94 1010.0
20260506082652 72 173 7.8 15.6 0.00 0.00 0.00 95 1010.0
20260506082152 72 170 5.2 13.0 0.00 0.00 0.00 95 1010.0
20260506081653 72 155 7.8 13.0 0.00 0.00 0.00 94 1009.9
20260506081153 72 134 7.8 14.8 0.00 0.00 0.00 94 1010.0
20260506080917 72 160 8.7 14.8 0.00 0.00 0.00 94 1009.9
20260506080152 72 154 9.6 16.5 0.00 0.00 0.00 94 1010.1
20260506073153 73 157 9.6 20.0 0.00 0.00 0.00 94 1010.0
20260506072653 73 181 8.7 21.7 0.00 0.00 0.00 94 1010.3
20260506072411 73 145 13.0 21.7 0.00 0.00 0.00 94 1010.1
20260506071912 73 176 12.2 23.5 0.00 0.00 0.00 93 1010.1
20260506071153 73 164 13.0 23.5 0.00 0.00 0.00 93 1010.2
20260506070652 73 139 10.4 21.7 0.00 0.00 0.00 94 1010.2
20260506070152 73 160 11.3 21.7 0.00 0.00 0.00 94 1010.2
20260506062153 73 197 9.6 20.9 0.00 0.00 0.00 94 1010.3
20260506061653 73 151 9.6 20.9 0.00 0.00 0.00 93 1010.0
20260506061153 73 162 10.4 20.0 0.00 0.00 0.00 93 1010.0
20260506060652 73 152 13.0 20.0 0.00 0.00 0.00 94 1010.3
20260506060154 73 157 11.3 20.0 0.00 0.00 0.00 94 1010.2
20260506051152 73 156 7.0 12.2 0.00 0.00 0.00 92 1010.3
20260506050653 73 155 7.0 13.0 0.00 0.00 0.00 92 1010.5
20260506050153 73 143 7.8 13.0 0.00 0.00 0.00 92 1010.4
20260506044652 73 175 9.6 14.8 0.00 0.00 0.00 91 1010.2
20260506044152 73 159 7.0 14.8 0.00 0.00 0.00 91 1010.3
20260506043925 73 162 8.7 13.0 0.00 0.00 0.00 91 1010.4
20260506043153 73 149 6.1 13.0 0.00 0.00 0.00 90 1010.1
20260506042652 73 134 7.8 14.8 0.00 0.00 0.00 90 1010.3
20260506042412 73 186 5.2 14.8 0.00 0.00 0.00 90 1010.3
20260506041913 73 159 8.7 13.0 0.00 0.00 0.00 90 1010.3
20260506041153 73 178 9.6 14.8 0.00 0.00 0.00 89 1010.2
20260506040653 73 168 7.0 14.8 0.00 0.00 0.00 89 1010.1
20260506040152 73 169 9.6 13.0 0.00 0.00 0.00 89 1010.2
20260506035152 74 184 7.8 13.0 0.00 0.00 0.00 88 1010.1
20260506034911 74 195 7.8 13.0 0.00 0.00 0.00 88 1010.1
20260506034153 74 182 7.8 13.0 0.00 0.00 0.00 88 1010.2
20260506033913 74 164 7.8 13.0 0.00 0.00 0.00 87 1010.0